Regional Weather Roundup
Issued by NWS Charleston, SC

Current Version | Previous Version | Graphics & Text | Print | Product List | Glossary On
Versions: 1 2 3 4 5 6 7 8 9 10 11 12 13 14 15 16 17 18 19 20 21 22 23 24 25 26 27 28 29 30 31 32 33 34 35 36 37 38 39 40 41 42 43 44 45 46 47 48 49 50
582 ASUS42 KCHS 271012 RWRCHS REGIONAL WEATHER ROUNDUP NATIONAL WEATHER SERVICE CHARLESTON SC 600 AM EDT SAT MAY 27 2017 NOTE: "FAIR" INDICATES FEW OR NO CLOUDS BELOW 12,000 FEET WITH NO SIGNIFICANT WEATHER AND/OR OBSTRUCTIONS TO VISIBILITY. NOT ALL STATIONS ARE QUALITY CONTROLLED. USE DATA WITH CAUTION... ESPECIALLY DEWPOINT OBSERVATIONS. SCZ027-030-031-034>040-042>050-271100- ...SOUTHEAST SOUTH CAROLINA... CITY SKY/WX TMP DP RH WIND PRES REMARKS N CHARLESTON PTCLDY 65 59 81 CALM 30.00S WATERFRONT PRK N/A 71 63 75 VRB3 29.98F JOHNS ISLAND FAIR 68 63 83 CALM 30.00F PINOPOLIS N/A 70 63 78 SW7 29.90S MONCKS CORNER FAIR 61 57 88 CALM 30.00R SUMMERVILLE FAIR 61 59 94 CALM 30.00S BEAUFORT MCAS CLEAR 65 62 90 SW5 30.01S BEAUFORT ARPT FAIR 64 63 94 S3 30.01S HILTON HEAD IS NOT AVBL WALTERBORO SUNNY 61 57 88 CALM 30.01S ALLENDALE FAIR 63 61 94 CALM 30.00R ...SOUTHERN MIDLANDS AND PEE DEE... CITY SKY/WX TMP DP RH WIND PRES REMARKS GEORGETOWN FAIR 61 59 94 SW5 30.01R KINGSTREE FAIR 59 59 100 CALM 29.98S ORANGEBURG CLEAR 63 60 90 SW5 29.98F BARNWELL FAIR 63 61 94 CALM 30.01R AIKEN FAIR 63 59 88 SW5 30.04S MANNING FAIR 61 61 100 CALM 29.99R COLUMBIA PTCLDY 67 60 78 W6 29.98R SUMTER CLEAR 66 59 78 SW3 29.95S FLORENCE CLEAR 62 59 90 CALM 29.97S MYRTLE BEACH CLEAR 64 58 80 SW3 30.00 N MYRTLE BEACH CLEAR 66 59 78 W5 29.98R $$ GAZ063-065-086>088-099>101-113>116-118-119-134>141-150-271100- ...SOUTHEAST GEORGIA... CITY SKY/WX TMP DP RH WIND PRES REMARKS SAVANNAH ARPT PTCLDY 65 58 78 CALM 30.02S HUNTER AAF CLEAR 63 63 100 CALM 30.00R FORT STEWART PTCLDY 60 57 90 CALM 30.01R STATESBORO CLEAR 62 62 100 CALM 30.02S SYLVANIA SUNNY 62 62 100 CALM 30.02S CLAXTON FAIR N/A N/A N/A CALM 30.03S ...CSRA...CENTRAL AND FAR SOUTHEAST GEORGIA... CITY SKY/WX TMP DP RH WIND PRES REMARKS THOMSON N/A 61 60 96 CALM 30.07R FOG AUGUSTA-BUSH CLEAR 62 60 93 CALM 30.00R AUGUSTA-DANIEL CLEAR 71 58 63 CALM 30.01S SWAINSBORO FAIR 61 61 100 CALM 30.03S VIDALIA CLEAR 63 61 94 SW3 30.04R EASTMAN FAIR 60 60 100 CALM 30.07R FOG HAZLEHURST FAIR 66 66 100 CALM 30.04R ALMA CLEAR 61 58 90 CALM 30.04R WAYCROSS CLEAR 63 63 100 CALM 30.05R JESUP FAIR 55 54 94 CALM 30.04S BAXLEY FAIR 61 61 100 CALM 30.04R BRUNSWICK CLEAR 61 61 100 CALM 30.05R SAINT SIMONS CLEAR 68 61 78 W7 30.04R $$ SCZ027-028-034-036>038-045-046-048>050-GAZ119-141-271100- ...LAKE AND SUPPLEMENTAL COASTAL OBSERVATIONS... STATION/POSITION TIME TEMP WIND PRES WAVE SWELL AIR SEA DIR/SP/G HT/PER HT/PER/DIR (UTC) (F) (DEG/KT/KT) (MB) (FT/S) (FT/S/D) WINYAH BAY NOT AVBL LAKE MURRAY 0920 73 270/ 11/ 13 1014.2 ACE BASIN NERRS 0845 65 CALM 1016.0 FORT PULASKI 0948 70 240/ 3/ 4 1016.8R SAPELO ISLAND 0900 70 230/ 5 1017.0 $$ ANZ835-935-AMZ111-154-330-350-352-354-370-450-454-472-271100- ...C-MAN AND BUOY OBSERVATIONS... STATION/POSITION TIME TEMP WIND PRES WAVE SWELL AIR SEA DIR/SP/G HT/PER HT/PER/DIR (UTC) (F) (DEG/KT/KT) (MB) (FT/S) (FT/S/D) BUOY 41004 0950 74 74 240/ 12/ 14 1015.9R 3/ 7 2/120/ 7 BUOY 41008 0850 76 77 210/ 12/ 14 1016.4 2/ 4 2/ 70/ 7 FOLLY BEACH CMAN 0900 70 250/ 3/ 4 1016.4F CAPERS NEARSHORE 0908 79 76 270/ 10/ 14 1015.6F FRIPP NEARSHORE 0908 76 77 250/ 8/ 10 1015.9R STATION/POSITION TIME TEMP WIND PRES WAVE SWELL AIR SEA DIR/SP/G HT/PER HT/PER/DIR (UTC) (F) (DEG/KT/KT) (MB) (FT/S) (FT/S/D) 5E ST. MARYS GA 0900 78 N/A 2/ 7 FRYING PAN BUOY 0950 74 74 260/ 14/ 16 1015.3R 3/ 5 BUOY 41025 0950 76 77 260/ 10/ 12 1014.1R 5/ 6 3/210/ 6 CAPE LOOKOUT NC 0900 72 260/ 7/ 9 1014.1R BUOY 41002 0950 75 77 280/ 10/ 12 1016.6R 4/ 7 3/170/ 7 BUOY 41010 0950 77 79 230/ 6/ 8 1017.5R 2/ 7 2/100/ 7 ST AUGUSTINE FL 1000 64 76 250/ 6/ 7 1018.7R $$

USA.gov is the U.S. government's official web portal to all federal, state and local government web resources and services.